GOES 1 (SMS-C) [-] 1 08366U 75100A 21112.62393840 .00000037 00000-0 00000-0 0 9998 2 08366 9.2684 301.0943 0001393 28.7157 336.7904 1.00266966166203 GOES 2 [-] 1 10061U 77048A 21112.45745470 -.00000261 00000-0 00000-0 0 9997 2 10061 10.7736 311.6747 0014392 17.2667 355.1064 0.99398705 27576 GOES 3 [-] 1 10953U 78062A 21112.68911656 .00000069 00000-0 00000-0 0 9995 2 10953 11.0588 315.8643 0003766 72.8567 293.9727 0.99359652109849 GOES 4 [-] 1 11964U 80074A 21112.45258034 -.00000298 00000-0 00000-0 0 9998 2 11964 11.9767 319.6514 0035622 59.1601 126.0829 0.99232245108769 GOES 5 [-] 1 12472U 81049A 21112.68920380 .00000075 00000-0 00000-0 0 9993 2 12472 12.6484 330.6203 0002706 46.7874 305.2531 1.00237410103978 GOES 6 [-] 1 14050U 83041A 21112.68998892 .00000056 00000-0 00000-0 0 9993 2 14050 13.1229 335.7882 0004229 84.8003 266.1979 1.00252956197148 GOES 7 [-] 1 17561U 87022A 21112.63880462 -.00000185 00000-0 00000-0 0 9998 2 17561 14.5758 352.1403 0008181 33.9258 147.2042 0.99891023108165 GOES 8 [-] 1 23051U 94022A 21112.27379508 -.00000058 00000-0 00000-0 0 9990 2 23051 12.8170 27.2371 0009098 359.7374 197.6537 0.98903569105517 GOES 9 [-] 1 23581U 95025A 21112.05327208 -.00000234 00000-0 00000-0 0 9994 2 23581 12.3053 27.3602 0007149 49.1906 134.5413 0.98802356 94167 GOES 10 [-] 1 24786U 97019A 21112.41737676 .00000057 00000-0 00000-0 0 9993 2 24786 10.9495 33.2407 0023361 195.6947 13.1770 0.99121337 87416 GOES 11 [-] 1 26352U 00022A 21112.62166556 .00000067 00000-0 00000-0 0 9999 2 26352 7.8047 62.5797 0002713 309.0163 292.2283 0.99041233 33833 GOES 12 [-] 1 26871U 01031A 21108.55611942 -.00000083 00000-0 00000-0 0 9996 2 26871 8.7683 50.8771 0008954 311.2011 60.2682 0.99139459 72070 EWS-G1 (GOES 13) [+] 1 29155U 06018A 21112.76994017 .00000035 00000-0 00000-0 0 9995 2 29155 0.2522 272.7889 0002124 301.1204 335.8286 1.00272126 24505 GOES 14 [B] 1 35491U 09033A 21113.17966087 -.00000095 00000-0 00000+0 0 9993 2 35491 0.1723 116.9167 0009663 102.4914 312.4351 1.00272141 43298 GOES 15 [B] 1 36411U 10008A 21112.69086128 .00000050 00000-0 00000-0 0 9996 2 36411 0.0825 216.2935 0004674 192.4089 283.2058 1.00281986 40810 GOES 16 [+] 1 41866U 16071A 21113.21700177 -.00000250 00000-0 00000+0 0 9990 2 41866 0.0348 283.1177 0001283 115.5388 175.7690 1.00271755 16242 GOES 17 [+] 1 43226U 18022A 21112.76075512 .00000096 00000-0 00000-0 0 9995 2 43226 0.0315 288.6612 0000485 116.5854 302.4539 1.00271736 11542